OPS 4682 DEB, 38374

Orbit data source: Space-Track

OPS 4682 DEB, 38374 is space debris in LEO originally from a launch on Sat, 03 Apr 1965 UTC launched from the Air Force Western Test Range (AFWTR). Debris objects in space refer to the collection of defunct objects orbiting the Earth. Examples of debris include non-operational satellites, rocket bodies, and fragments generated from explosions, collisions, or faulty payload assembly.

Loading next visibility...
Identifier
38374, 1965-027CB
Orbit
LEO
Country
Flag of USUS
Related business
Manufacturer
Unknown
Mission
Spacecraft
Bus & Motor
Unknown
Mass
Unknown
Launch date (UTC)
1965-04-03 (61 years ago)
Launch vehicle
Unknown
Launch site
Air Force Western Test Range (AFWTR)
Object type
Payload
Rocket body
Debris
Shape & HBR
Unknown shape, 0.1 m
Radar Cross Section
Small (<0.1 m²)

Expand to show TLE details & history
Last TLE update: 19 hours ago

TLE from 19 hours ago
0 OPS 4682 DEB
1 38374U 65027CB  25340.82174349  .00000197  00000-0  61909-3 0  9992
2 38374  90.2446   9.6122 0023658  13.6336 346.5421 13.01214904587615
Epoch: 2025-12-06T19:43Z
TLE epoch observation values (Epoch: 2025-12-06T19:43:18.637Z)
Latitude
-0.00001°
Longitude
-2.05943°
Altitude
1,242.647 km
Speed
7.242 km/s
True Right ascension
00h 38m 26s
True Declination
0° 00' 00"
Sunlit
Object was in daylight at epoch
Visualization orbit readout
Latitude
Unknown
Longitude
Unknown
Altitude
Unknown
Speed
Unknown
Apparent Right ascension
Unknown
Apparent Declination
Unknown
Sunlit
N/A
Visualization observer readout
Local Sidereal Time
12:45:29
Azimuth
Unknown
Elevation
Unknown
Doppler factor
Unknown
Orbital elements
Apogee altitude
1,272.513 km
Perigee altitude
1,236.398 km
Semi-major axis
7,632.592 km
Eccentricity
0.00237
Inclination
90.2446°
RAAN
9.6122°
Arg. of periapsis
13.6336°
True anomaly
346.47882°
Mean anomaly
346.5421°
Eccentric anomaly
346.51048°
Mean motion
3.25488 °/min
Orbital period
110.6 mins
BSTAR
0.00061909
Loading maneuver chart data...
Computing Atmospheric mass density...
Loading historical data...
Loading historical data...
Loading historical data...
Loading historical data...
Loading historical data...
Loading historical data...
Loading historical data...

Documentation

Showing up to 5 results
|